Hourly Data Report for January 03, 2006

TORONTO CITY
ONTARIO

43°40'00.000" N
79°24'00.000" W
112.50 m
6158355
71508
XTO

Download Data

Hourly Data (January 2006)
Hourly Data Report for January 3, 2006
TIME
LST
Temp Definition
°C
Dew Point Definition
°C
Rel Hum Definition
%
Precip. Amount Definition
mm

Wind Dir Definition
10's deg

Wind Spd Definition
km/h
Visibility Definition
km
Stn Press Definition
kPa
Hmdx Definition


Wind Chill Definition


Weather Definition


00:00 2.4 1.7 95   LegendMM LegendMM   99.83     LegendNANA
01:00 2.5 1.7 94   LegendMM LegendMM   99.81     LegendNANA
02:00 2.4 1.5 94   LegendMM LegendMM   99.85     LegendNANA
03:00 2.3 1.3 93   LegendMM LegendMM   99.88     LegendNANA
04:00 1.8 0.7 92   LegendMM LegendMM   99.90     LegendNANA
05:00 2.4 1.4 93   LegendMM LegendMM   99.89     LegendNANA
06:00 2.4 1.3 92   LegendMM LegendMM   99.92     LegendNANA
07:00 2.3 1.1 92   LegendMM LegendMM   100.00     LegendNANA
08:00 2.0 0.5 90   LegendMM LegendMM   100.03     LegendNANA
09:00 2.2 0.8 90   LegendMM LegendMM   100.12     LegendNANA
10:00 2.2 0.7 90   LegendMM LegendMM   100.15     LegendNANA
11:00 1.9 0.2 88   LegendMM LegendMM   100.18     LegendNANA
12:00 1.8 0.3 90   LegendMM LegendMM   100.15     LegendNANA
13:00 1.8 0.3 90   LegendMM LegendMM   100.14     LegendNANA
14:00 1.8 0.1 88   LegendMM LegendMM   100.16     LegendNANA
15:00 1.8 0.2 89   LegendMM LegendMM   100.24     LegendNANA
16:00 2.1 0.2 87   LegendMM LegendMM   100.30     LegendNANA
17:00 2.0 0.6 90   LegendMM LegendMM   100.37     LegendNANA
18:00 1.7 1.0 95   LegendMM LegendMM   100.28     LegendNANA
19:00 2.0 0.9 92   LegendMM LegendMM   100.26     LegendNANA
20:00 2.4 1.5 94   LegendMM LegendMM   100.30     LegendNANA
21:00 2.8 2.0 94   LegendMM LegendMM   100.29     LegendNANA
22:00 3.0 2.4 96   LegendMM LegendMM   100.24     LegendNANA
23:00 3.0 2.4 96   LegendMM LegendMM   100.25     LegendNANA

Notes on Data Quality.

Legend

  • E = Estimated
  • M = Missing
  • NA = Not Available*
  • [empty] = Indicates an unobserved value
Date modified: